sat.trackr.live / text

‹ back to catalog

STARLINK-1327

NORAD 45555 · 2020-025AA

PAYLOAD ACTIVE UNKNOWN

§ Identity

Operator
Country
US
Launch date
2020-04-22
Launch site
AFETR
Launch vehicle
Mass (kg)
RCS (m²)

Purposes: comms

External: N2YO · Heavens-Above · Gunter

§ Orbital elements

Epoch: 2026-09-15T20:47:11.270688Z

Period
90.72 min
Inclination
53.0344°
Eccentricity
0.0004938
Mean motion
15.87244964 rev/d
Perigee alt
306.7 km
Apogee alt
313.3 km
Semi-major
6,688.1 km
B*
4.3556e-4
RAAN
206.1816°
Arg perigee
53.7837°
Mean anomaly
306.3642°
Rev number
35,552

§ Raw data

STARLINK-13271 45555U 20025AA  26258.86610267  .00117356  00000+0  43556-3 0  99902 45555  53.0344 206.1816 0004938  53.7837 306.3642 15.87244964355520

JSON: /api/v1/satellites/45555 · /tle

For live sub-satellite position, see the globe view (requires WebGL).

§ Visibility from observer

Set your observer location to see the next 7 days of passes ≥ 10°. The values pass through the URL so the page stays shareable.

No JS? Fill the form by hand. The geolocation button needs JavaScript.